Weather Roundup
Issued by NWS Chicago, IL

Home | Current Version | Previous Version | Text Only | Print | Product List | Glossary Off
Versions: 1 2 3 4 5 6 7 8 9 10 11 12 13 14 15 16 17 18 19 20 21 22 23 24 25 26 27 28 29 30 31 32 33 34 35 36 37 38 39 40 41 42 43 44 45 46 47 48 49 50

000
NZUS59 KLOT 300908
HRRLOT

CHICAGO AREA WEATHER ROUNDUP
NATIONAL WEATHER SERVICE CHICAGO/ROMEOVILLE IL
400 AM CDT TUE MAY 30 2017

NOTE: "FAIR" INDICATES FEW OR NO CLOUDS BELOW 12,000 FEET WITH NO
SIGNIFICANT WEATHER AND/OR OBSTRUCTIONS TO VISIBILITY.

* THESE STATIONS ARE NOT UNDER NWS QUALITY CONTROL. THEY ALSO MAY NOT
  REPORT WEATHER SUCH AS PRECIPITATION OR FOG.

ILZ005-006-012>014-019>023-301000-
NORTHEAST ILLINOIS

CITY           SKY/WX    TMP DP  RH WIND       PRES   REMARKS
OHARE          CLEAR     56  46  69 W7        29.91R
MIDWAY         CLEAR     59  47  64 W7        29.91R
AURORA         CLEAR     54  47  77 SW7       29.93S
LANSING*       CLEAR     55  49  81 W7        29.93R
JOLIET*        CLEAR     56  48  73 CALM      29.93S
WAUKEGAN       CLEAR     53  49  86 VRB3      29.89R
DUPAGE AIRPORT CLEAR     53  48  83 W7        29.91S
WHEELING       CLEAR     56  48  74 W7        29.92R
KANKAKEE*      MOCLDY    55  46  72 CALM      29.95S
MORRIS*        CLEAR     52  46  79 CALM      29.93S
LEWIS AIRPORT* CLEAR     53  49  87 W6        29.93R
NORTHERLY ISL    N/A     61  45  55 W7          N/A
$$

WIZ051-052-058>065-066-070>072-301000-
SOUTHEAST WISCONSIN

CITY           SKY/WX    TMP DP  RH WIND       PRES   REMARKS
MILWAUKEE      CLEAR     55  49  80 W7        29.87S
KENOSHA*       CLEAR     49  45  86 SW6       29.88S
RACINE*        CLEAR     54  47  77 W7        29.89S
WAUKESHA       CLEAR     52  45  76 W10       29.89R
WEST BEND      CLEAR     52  48  87 W8        29.86R
$$

INZ001>003-010>013-019-020-301000-
NORTHWEST INDIANA

CITY           SKY/WX    TMP DP  RH WIND       PRES   REMARKS
GARY*          CLEAR     59  45  60 SW5       29.92R
MICHIGAN CITY* NOT AVBL
RENSSELAER*    NOT AVBL
VALPARAISO     CLEAR     56  47  71 SW7       29.92S
$$

LMZ740>746-301000-
SOUTHERN LAKE MICHIGAN

STATION/POSITION TIME  SKY/WX   TEMP WIND        PRES    VSBY
                                AIR  DIR/SP/G
                 (UTC)          (F)  (DEG/KT/KT) (MB)    (MI)
HARRISON CRIB    0840            63  270/ 12/ 14   N/A
BURNHAM HARBOR   0900            60  280/  8/  9   N/A
CALUMET HARBOR   0848            60  230/  4/  6 1012.5R
BURNS HARBOR     0900            61  230/  8/ 11 1013.2
MICHIGAN CITY    0840            57  190/  7/  8   N/A
$$

ABBREVIATIONS USED IN REMARKS
   TC - TEMPERATURE IN CELSIUS
  WCI - WIND CHILL INDEX
   HX - HEAT INDEX
  VSB - VISIBILITY
$$



USA.gov is the U.S. government's official web portal to all federal, state and local government web resources and services.